Theta_e
318 314 314 314 313 314 314 315 314 315 316 319 318 317 316 320 320 321 320 336 336 337 334 335 342 344 346 345 344 339 337 336 343 342 341 349 348 346 347 347 347 346 347 346
315 315 316 315 316 315 315 314 314 315 317 319 318 318 318 318 320 322 330 335 338 341 343 344 344 344 344 347 349 349 346 346 345 343 341 342 341 343 345 345 345 347 348 348
316 317 318 318 317 318 318 318 318 318 320 319 319 317 318 318 320 321 324 334 336 342 344 344 345 342 337 347 353 353 351 353 352 345 343 345 348 351 351 349 347 348 348 348
317 318 319 319 319 319 318 318 320 321 319 318 318 318 317 319 316 320 325 334 338 343 343 345 347 346 342 341 347 351 354 355 355 355 355 352 352 352 350 352 351 352 351 350
317 318 317 319 319 319 319 319 319 320 318 319 318 316 315 317 320 325 326 332 340 342 346 346 345 345 347 349 346 345 343 352 356 356 355 352 355 352 351 350 350 353 353 349
316 319 319 320 321 321 320 319 319 318 314 318 317 316 319 327 326 325 325 338 337 336 340 338 337 339 338 339 344 346 347 348 350 347 346 348 347 348 351 353 351 348 349 350
318 319 320 319 318 319 317 317 320 320 319 320 318 317 330 325 323 322 324 325 334 334 334 335 335 334 332 331 335 341 341 341 343 343 342 343 343 344 345 345 347 347 349 349
318 319 317 317 320 321 320 318 321 326 322 323 320 327 331 324 323 321 320 321 326 329 331 330 327 331 329 326 325 324 326 336 339 338 338 338 339 340 340 340 342 343 344 346
316 318 317 317 320 320 320 321 320 323 324 323 320 331 328 325 325 322 320 320 319 319 322 328 331 332 331 329 328 327 325 325 324 324 321 320 322 328 333 331 333 338 341 341
316 315 317 317 319 319 320 319 322 319 325 329 324 326 330 328 326 323 320 319 319 318 317 317 317 317 318 319 319 321 320 320 321 321 323 322 322 320 317 316 317 321 329 336
314 315 315 315 317 319 320 323 323 320 322 327 328 326 329 327 324 323 320 319 317 318 316 316 315 316 317 317 318 317 317 318 319 319 319 319 319 322 322 321 319 317 316 317
313 312 314 315 320 321 319 320 320 323 324 322 326 326 324 323 322 322 321 317 318 318 318 318 317 316 314 315 316 317 316 315 316 317 318 318 317 318 318 323 323 322 315 315
311 309 310 312 312 315 319 320 321 319 318 321 324 325 321 323 322 322 322 320 319 320 320 319 318 315 314 314 315 315 314 314 314 314 315 316 316 316 317 317 322 323 322 316
312 309 310 312 313 313 316 317 320 318 320 321 321 320 323 322 323 320 320 320 320 321 319 319 317 313 314 313 313 313 312 313 313 312 311 312 314 315 316 316 317 319 322 321
309 311 313 315 317 316 316 317 316 318 317 318 317 321 321 321 320 321 320 319 318 318 318 314 312 312 312 312 312 311 311 311 311 311 311 311 311 312 314 315 316 317 319 321
309 313 316 316 316 315 315 314 316 316 318 316 314 320 317 319 319 320 320 318 318 313 312 312 312 312 312 312 312 312 312 312 312 311 312 311 311 311 312 313 314 315 319 319
310 310 310 312 314 314 313 315 315 313 315 312 312 313 312 312 313 314 314 314 313 312 312 312 312 312 311 311 311 311 310 308 309 309 309 309 311 311 312 312 313 313 317 319
309 308 308 310 311 314 312 313 315 316 316 314 313 313 313 312 312 313 313 312 312 312 312 312 312 312 311 311 310 309 307 307 309 308 306 307 307 310 311 312 312 312 313 318
308 307 309 308 311 312 314 315 312 311 315 314 313 314 313 313 312 312 312 312 312 311 311 310 310 310 310 309 308 308 308 308 306 308 308 307 308 308 308 309 311 311 312 312
309 309 310 308 310 310 312 315 314 310 314 314 312 311 312 313 312 311 311 311 311 311 311 310 309 309 309 309 308 308 307 307 307 307 307 308 308 308 309 309 309 309 309 311
310 309 309 304 306 309 311 314 314 313 308 313 312 311 311 309 311 312 311 311 310 310 310 310 310 309 309 309 307 307 307 308 309 309 309 309 309 309 309 309 309 309 309 308
312 309 309 306 308 310 314 314 315 310 313 312 312 312 312 312 311 311 311 310 310 309 309 309 308 309 308 308 307 307 306 306 307 307 308 308 309 309 309 310 309 309 310 310
311 310 311 309 308 311 313 314 314 314 314 312 312 311 311 311 310 310 310 309 309 309 308 308 307 307 307 307 307 306 306 307 307 307 307 309 309 308 309 309 310 309 310 310
309 313 309 310 311 312 312 313 313 313 313 312 312 311 311 310 310 309 308 308 308 307 307 306 306 306 306 306 306 306 306 308 308 308 308 308 308 308 309 308 308 308 309 309
307 309 309 309 309 311 312 313 313 312 312 311 311 311 310 309 307 307 307 306 306 305 305 304 305 305 306 305 305 305 306 307 308 309 308 308 308 307 307 307 307 308 308 308
307 305 305 305 310 311 311 313 313 312 311 311 310 308 307 306 305 305 305 306 306 306 305 305 305 304 304 305 305 306 307 309 308 308 307 306 306 306 306 307 307 307 306 307
Wind_Speed
4 3 5 9 7 8 5 6 11 16 16 4 14 9 14 18 5 8 15 33 30 32 28 26 24 20 25 23 23 26 30 35 31 31 32 31 24 24 21 19 19 21 20 21
5 5 12 7 8 7 9 12 12 12 11 4 7 9 7 4 4 11 26 33 36 32 33 32 28 28 25 19 24 27 25 23 23 31 37 41 35 29 31 31 30 26 22 21
5 8 6 5 9 11 14 6 9 9 10 3 3 7 6 9 5 8 20 24 33 40 37 30 28 22 20 22 27 24 21 19 17 29 36 31 25 20 19 26 31 30 29 26
5 5 4 9 8 6 5 10 12 13 2 7 3 8 3 6 8 7 19 37 37 37 34 32 28 22 18 17 16 22 20 18 16 15 19 20 16 15 18 19 19 19 23 23
9 7 8 7 6 10 9 10 9 13 6 1 2 3 8 4 10 15 9 26 33 34 36 34 30 28 22 17 13 11 13 18 18 15 12 15 18 18 20 20 21 22 19 19
7 20 2 1 3 6 8 8 7 2 2 6 6 6 4 5 8 14 3 16 21 29 34 33 28 24 19 15 13 11 9 12 15 12 12 14 18 17 15 20 18 20 17 20
5 5 4 16 8 9 11 8 5 5 3 7 3 4 5 2 11 17 19 20 20 26 31 26 23 20 17 16 12 10 10 9 7 5 5 9 10 14 20 22 17 21 16 16
4 6 8 8 4 4 5 4 4 2 3 10 7 5 7 6 19 30 29 28 28 19 25 24 22 23 26 25 25 23 22 12 3 1 2 4 7 10 12 16 18 16 18 16
5 4 11 9 3 3 5 2 2 6 4 5 6 5 6 2 15 27 29 34 33 30 26 22 26 23 22 21 21 24 22 19 15 14 12 8 5 3 9 9 9 11 14 18
2 5 3 6 7 4 5 2 2 4 3 6 6 5 5 6 10 16 21 24 27 24 33 32 30 28 23 23 23 21 19 19 15 13 11 11 10 8 7 7 7 10 12 16
2 3 6 5 4 6 4 3 5 1 2 4 1 6 2 8 12 17 25 19 22 16 27 24 23 18 12 12 14 15 13 10 7 8 9 11 12 13 12 12 13 13 12 12
1 4 1 4 5 6 5 5 4 4 3 4 4 4 8 4 11 22 30 31 20 10 6 7 3 8 7 9 6 2 5 8 9 11 11 10 11 12 13 14 13 16 18 16
2 2 3 7 5 3 4 3 3 4 3 5 4 4 6 13 7 15 22 27 29 28 17 7 14 5 6 3 1 5 9 14 16 15 15 15 17 15 13 13 14 16 19 20
6 3 6 5 7 5 6 6 9 7 3 3 5 6 5 13 4 12 17 21 24 20 19 14 10 14 6 6 5 5 8 11 16 20 18 20 17 16 14 13 13 15 18 19
4 5 3 4 6 6 10 9 9 7 10 5 10 9 9 13 10 19 19 14 14 16 11 18 15 11 6 3 3 8 10 13 16 19 22 22 20 18 17 16 16 14 14 18
4 3 2 3 5 6 10 14 15 11 14 8 6 9 7 13 19 17 22 22 9 23 20 16 11 5 1 2 4 7 11 14 18 17 16 19 21 18 18 18 18 15 14 13
1 3 2 4 4 7 6 3 7 5 7 4 1 6 4 11 17 21 25 27 23 20 15 12 7 2 4 10 16 20 23 25 20 19 21 23 19 19 19 20 20 17 14 13
5 3 3 3 4 2 6 12 8 11 8 10 4 7 15 20 26 25 23 23 19 15 10 3 3 8 13 18 22 26 25 23 24 25 18 19 21 22 22 21 21 20 19 13
13 5 1 2 2 6 7 4 4 3 5 7 10 10 16 24 27 17 14 11 11 7 5 3 3 6 11 18 21 22 22 24 23 19 19 18 17 18 22 26 25 24 21 22
5 4 5 3 2 4 5 6 10 4 0 4 12 8 10 9 4 2 7 6 5 1 3 7 11 8 8 8 9 12 18 22 21 20 22 21 19 19 20 19 20 26 29 27
2 2 6 3 3 6 6 13 12 2 6 5 11 13 11 5 7 9 7 6 2 5 10 8 11 14 11 11 15 15 17 18 16 19 20 21 19 19 21 21 23 20 21 23
4 4 3 2 2 6 9 3 1 3 7 12 10 9 10 10 7 3 4 8 11 11 10 13 14 12 15 19 19 19 19 20 21 23 23 23 21 23 22 22 20 18 19 21
0 5 3 5 4 1 7 2 4 5 3 8 12 9 7 3 4 6 6 9 10 11 12 12 16 18 18 20 17 21 20 20 22 25 23 21 22 22 21 19 19 20 19 18
5 4 3 3 4 3 5 4 4 5 8 8 6 3 1 2 5 9 11 11 10 10 13 16 18 20 22 20 20 22 23 20 24 21 20 19 17 19 17 19 19 21 20 21
5 2 3 4 8 8 8 10 9 11 9 6 3 2 2 5 6 7 9 13 15 16 17 20 20 17 18 22 23 23 22 22 19 16 15 14 14 18 19 20 19 19 19 22
7 6 2 5 13 6 7 12 13 16 12 7 4 3 1 4 6 10 11 12 14 16 17 19 18 18 19 21 22 21 17 14 13 14 14 17 19 20 21 22 23 20 22 22
Wind_Direction
302 73 245 245 218 230 241 255 268 279 280 281 290 286 276 218 179 222 152 147 137 127 128 138 161 178 175 172 186 200 198 214 208 212 215 209 205 216 218 221 235 246 250 251
10 265 254 242 259 234 249 256 268 277 273 231 305 304 303 274 179 179 147 139 137 136 136 132 134 139 147 170 183 188 198 207 208 214 217 224 236 236 237 239 240 242 246 245
184 249 289 234 268 270 269 250 276 249 292 222 323 319 337 313 212 166 156 153 146 144 137 137 135 142 157 136 159 173 186 202 209 217 222 232 234 242 243 241 242 246 249 251
251 276 273 296 292 264 261 258 264 271 286 279 131 276 292 278 311 37 155 157 153 144 140 142 140 137 142 145 153 165 174 182 184 199 215 229 236 245 255 253 250 252 254 255
255 285 297 298 277 316 291 280 270 278 253 255 239 101 277 2 360 354 271 154 148 142 138 132 128 127 132 149 155 153 163 172 176 186 209 229 227 237 242 244 251 255 262 262
244 286 49 14 325 9 330 349 341 312 134 256 238 140 13 11 331 316 206 117 113 112 118 113 109 114 111 115 128 127 132 156 169 192 214 231 243 244 245 248 249 253 261 254
333 3 7 18 3 351 38 41 346 330 336 250 355 85 83 65 49 36 42 48 84 99 101 101 97 91 86 84 95 118 111 92 103 150 207 245 261 255 260 266 275 265 275 269
46 336 23 359 14 322 331 119 143 218 341 308 287 182 160 136 80 61 44 52 79 73 103 97 93 94 90 84 78 78 84 97 124 98 254 269 273 269 274 278 279 280 273 277
27 301 337 21 351 64 311 330 183 145 163 325 287 108 167 152 73 63 47 42 52 62 75 90 94 96 94 85 84 76 71 73 70 72 73 73 50 318 275 303 304 306 286 291
309 299 315 339 354 60 97 335 358 27 170 209 269 237 151 166 109 90 59 44 35 48 65 71 73 80 84 81 77 82 72 69 55 38 33 29 26 21 12 0 339 321 309 280
81 107 302 10 344 273 6 67 73 136 178 226 131 292 351 169 152 128 114 81 51 16 73 65 63 66 74 80 79 70 62 53 40 25 11 359 357 353 347 345 337 327 328 326
234 127 323 286 326 108 130 159 141 158 200 310 297 246 1 249 154 142 134 138 149 152 2 63 100 82 59 88 103 88 29 7 344 324 312 313 322 330 341 338 335 338 331 317
164 29 13 348 327 349 85 198 169 115 96 206 164 279 347 301 150 144 147 166 181 188 219 226 216 207 160 141 15 324 330 312 308 313 315 301 300 311 317 335 331 327 330 329
103 137 160 202 225 250 294 283 192 176 178 211 221 254 203 262 192 161 167 178 190 204 199 200 208 110 166 110 79 353 302 297 299 298 303 300 304 302 313 319 315 317 314 323
99 189 215 247 278 300 302 316 300 207 231 196 271 210 242 202 199 187 171 175 179 194 210 162 135 127 117 84 294 294 314 311 306 309 309 313 316 298 296 309 313 297 301 303
4 272 277 262 275 330 316 296 282 275 257 272 251 204 218 176 172 193 181 181 166 135 131 122 112 110 100 306 323 327 319 308 306 306 305 301 304 308 300 294 307 307 301 283
228 152 48 271 321 330 311 273 289 69 13 292 115 220 129 82 101 116 117 129 118 117 110 105 107 86 341 327 325 320 319 316 312 313 301 291 292 293 298 303 304 297 312 296
192 138 146 259 2 260 238 309 105 94 24 3 46 82 108 110 105 102 109 113 115 113 109 96 330 313 310 312 314 316 322 315 313 322 328 313 299 288 289 293 299 308 292 296
193 138 241 150 197 285 308 359 4 357 4 1 74 89 110 113 93 90 108 107 106 99 91 79 330 310 306 304 308 315 325 323 318 322 336 340 340 328 305 294 292 298 302 292
138 141 159 143 161 240 249 296 337 54 95 317 91 86 102 186 72 226 101 78 81 39 304 302 297 288 288 278 288 301 310 313 312 312 315 315 313 316 315 316 310 296 292 291
65 64 184 155 208 281 258 295 293 175 232 150 116 116 113 102 120 125 110 113 55 324 322 308 305 312 310 306 320 323 318 304 313 304 305 309 306 311 311 314 314 302 300 295
184 149 207 105 144 279 354 328 206 243 127 134 126 114 98 100 104 66 332 310 311 315 321 318 317 309 306 308 313 314 307 313 311 312 305 302 302 310 307 311 313 306 301 301
255 175 183 175 227 276 335 78 95 80 176 139 124 110 107 82 6 350 336 326 325 323 320 312 318 318 309 313 311 318 312 308 305 303 303 301 297 300 305 303 305 312 312 309
333 168 186 76 259 213 301 233 117 200 172 131 122 108 21 24 338 331 319 315 322 320 316 320 310 308 307 312 308 309 306 309 308 302 303 300 299 302 303 310 307 309 302 305
239 319 238 251 283 287 215 204 187 151 156 157 154 118 352 309 313 315 316 321 326 327 325 321 316 306 300 304 304 302 298 308 307 305 309 308 308 309 305 307 307 308 308 306
219 212 167 238 258 230 261 176 167 163 163 155 152 153 124 340 339 324 321 320 317 313 318 316 320 317 310 311 308 310 309 305 308 304 303 307 305 302 303 306 305 300 308 306